Total_Precipitation_Accumulation
0.28 0.25 0.22 0.16 0.42 0.80 0.48 0.29 0.44 0.35 0.32 0.27 0.30 0.12 0.18 0.12 0.08 0.12 0.14 0.11 0.08 0.05
0.14 0.12 0.14 0.32 0.41 0.49 1.05 0.71 0.76 0.49 0.35 0.32 0.23 0.19 0.22 0.09 0.18 0.25 0.16 0.07 0.08 0.06
0.08 0.07 0.11 0.31 0.32 0.72 0.99 1.17 1.67 0.76 0.36 0.32 0.32 0.26 0.29 0.20 0.16 0.23 0.11 0.01 0.07 0.12
0.06 0.08 0.09 0.16 0.22 0.22 0.37 0.55 0.57 0.83 0.62 0.45 0.34 0.34 0.57 0.45 0.30 0.34 0.21 0.09 0.13 0.09
0.14 0.09 0.05 0.14 0.10 0.14 0.25 0.41 0.44 0.45 0.65 0.46 0.30 0.42 0.76 0.42 0.36 0.57 0.32 0.16 0.15 0.18
0.41 0.22 0.12 0.07 0.10 0.16 0.22 0.20 0.21 0.39 0.76 0.63 0.41 0.51 0.55 0.68 0.61 0.43 0.45 0.34 0.28 0.28
0.66 0.33 0.22 0.27 0.28 0.18 0.19 0.13 0.15 0.18 0.39 0.50 0.47 0.29 0.38 0.69 0.66 0.48 0.52 0.72 0.49 0.35
1.19 0.90 0.90 0.92 0.87 0.72 0.63 0.42 0.25 0.16 0.33 0.60 0.61 0.35 0.50 0.64 0.60 0.66 0.52 0.68 0.65 0.49
1.20 1.17 1.50 1.59 2.02 1.49 1.38 1.29 0.98 0.72 0.69 0.66 0.43 0.79 0.92 0.55 0.73 0.74 0.71 0.78 0.67 0.59
1.85 1.69 1.53 1.74 2.01 2.02 2.30 2.02 1.76 1.53 1.41 1.22 1.03 0.98 0.73 0.76 0.50 0.76 0.91 0.83 0.75 0.65
1.91 2.37 2.24 1.89 1.92 2.27 2.19 1.99 1.86 1.60 1.62 1.55 1.40 1.08 0.94 1.01 0.60 0.52 0.65 0.77 0.63 0.64
2.03 2.22 2.53 2.49 2.17 2.09 2.20 2.05 2.05 2.16 2.18 1.80 1.33 1.28 0.93 0.95 0.90 0.60 0.74 0.90 0.73 0.58
1.46 1.52 1.51 1.71 1.82 1.65 1.74 1.84 1.51 1.17 0.86 0.90 0.95 1.09 0.96 0.93 0.69 0.52 0.52 0.46 0.47 0.47
1.76 1.72 1.66 1.55 1.82 1.89 1.96 1.67 1.38 1.20 1.25 1.27 1.33 1.30 1.26 1.14 0.93 0.80 0.67 0.59 0.51 0.39